Find Starlink 35219

NORAD ID: 66443 Int'l Des: 2025-259 Owner: SPXS Country: US Constellation: starlink operational
LEOCIRCULAR

当前视图

正在加载3D地球...

About Starlink 35219

Starlink 35219 (NORAD 66443) is a starlink constellation satellite (v2 mini) launched Nov 11, 2025 by SPXS of US. It operates in LEO, CIRCULAR orbit with a mass of 575.00 kg.

关于 Starlink 35219

正在加载描述...

即将过境

Passes for default location (London). Set your location on the main map for personalized predictions.

高度历史

Loading altitude history...

两行轨道根数

1 66443U 25259X 26194.27642534 .00016840 00000-0 61985-3 0 9992
2 66443 42.9993 285.4842 0001328 263.6240 96.4461 15.27592008 38584
Epoch: Jul 13, 2026 • Age: 24 hours

当前状态

高度 485.1 km
远地点 / 近地点 N/A
速度 7.63 km/s
星下点 34.90°N, 18.94°E
发射日期 Nov 11, 2025
运行时间 0.6 years
类型 internet

技术详情

分类 Payload
质量 575.00 kg
干质量 530.00 kg
总质量 575.00 kg
长度 0.30 m
直径 4.10 m
跨度 29.00 m
形状 Box + pan
制造商 SPXS
平台类型 Starlink V2MO
阶段状态 In Orbit
所有者/国家 SPXS/US

Most Searched